Weather History for Raton, NM

Change the Weather History Date:

Tuesday, November 20, 2012

  Actual Average (KTAD) Record (KTAD)
Temperature  
Mean Temperature 42 °F 38 °F  
Max Temperature 61 °F 54 °F 72 °F (2003)
Min Temperature 24 °F 24 °F -5 °F (1975)
Degree Days  
Heating Degree Days 22 27  
Month to date heating degree days 443  
Since 1 July heating degree days 944  
Cooling Degree Days 0 0  
Month to date cooling degree days 0  
Year to date cooling degree days 719  
Moisture  
Dew Point 11 °F    
Average Humidity 33    
Maximum Humidity 55    
Minimum Humidity 13    
Precipitation  
Precipitation 0.00 in 0.02 in 0.60 in (1997)
Month to date precipitation 0.50  
Year to date precipitation 13.10  
Sea Level Pressure  
Sea Level Pressure 30.22 in    
Wind  
Wind Speed 7 mph (NE)    
Max Wind Speed 10 mph    
Max Gust Speed -    
Visibility 10 miles    
Events      
T = Trace of Precipitation, MM = Missing Value Source: NWS Daily Summary

Daily Weather History Graph

Daily Weather History Graph

Search for Another Location

Airport:

Trip Planner

Search our weather history database for the weather conditions in past years. The results will help you decide how hot, cold, wet, or windy it might be!

Date:

Astronomy

Nov. 20, 2012 Rise Set
Actual Time 6:41 AM MST 4:45 PM MST
Civil Twilight 6:13 AM MST 5:13 PM MST
Nautical Twilight 5:42 AM MST 5:44 PM MST
Astronomical Twilight 5:11 AM MST 6:15 PM MST
Moon 12:22 PM MST (11/20) No Moon Set
Length of Visible Light 10h 59m
Length of Day
10h 03m
First Quarter, 52% of the Moon is Illuminated
Nov 20
First Quarter
Nov 28
Full
Dec 6
Last Quarter
Dec 13
New
Dec 19
First Quarter

Hourly Weather History & Observations

Time (MST) Temp. Windchill Dew Point Humidity Pressure Visibility Wind Dir Wind Speed Gust Speed Precip Events Conditions
12:53 AM 32.0 °F 27.5 °F 10.9 °F 42% 30.20 in 10.0 mi NE 4.6 mph - N/A   Clear
1:53 AM 26.1 °F 17.6 °F 9.0 °F 49% 30.22 in 10.0 mi ENE 8.1 mph - N/A   Clear
2:53 AM 25.0 °F 17.1 °F 9.0 °F 51% 30.22 in 10.0 mi ENE 6.9 mph - N/A   Clear
3:53 AM 24.1 °F 14.4 °F 9.0 °F 53% 30.24 in 10.0 mi ENE 9.2 mph - N/A   Clear
4:53 AM 24.1 °F 14.4 °F 9.0 °F 53% 30.25 in 10.0 mi NE 9.2 mph - N/A   Clear
5:53 AM 24.1 °F 13.7 °F 10.0 °F 55% 30.30 in 10.0 mi ENE 10.4 mph - N/A   Clear
6:53 AM 24.1 °F 16.0 °F 10.0 °F 55% 30.33 in 10.0 mi ENE 6.9 mph - N/A   Clear
7:53 AM 34.0 °F 31.0 °F 12.9 °F 42% 30.32 in 10.0 mi NNE 3.5 mph - N/A   Clear
8:53 AM 41.0 °F - 14.0 °F 33% 30.31 in 10.0 mi Calm Calm - N/A   Clear
9:53 AM 48.9 °F - 15.1 °F 26% 30.29 in 10.0 mi NE 6.9 mph - N/A   Clear
10:53 AM 54.0 °F - 14.0 °F 21% 30.25 in 10.0 mi Variable 3.5 mph - N/A   Clear
11:53 AM 57.9 °F - 14.0 °F 18% 30.19 in 10.0 mi South 8.1 mph - N/A   Clear
12:53 PM 59.0 °F - 12.9 °F 16% 30.15 in 10.0 mi South 8.1 mph - N/A   Clear
1:53 PM 61.0 °F - 10.9 °F 14% 30.15 in 10.0 mi SSW 8.1 mph - N/A   Clear
2:53 PM 61.0 °F - 10.0 °F 13% 30.15 in 10.0 mi SSW 9.2 mph - N/A   Clear
3:53 PM 59.0 °F - 9.0 °F 14% 30.16 in 10.0 mi SSW 8.1 mph - N/A   Clear
4:53 PM 52.0 °F - 9.0 °F 18% 30.19 in 10.0 mi SSW 6.9 mph - N/A   Clear
5:53 PM 48.9 °F - 10.0 °F 21% 30.22 in 10.0 mi SW 6.9 mph - N/A   Clear
6:53 PM 42.1 °F 37.7 °F 8.1 °F 25% 30.27 in 10.0 mi WSW 6.9 mph - N/A   Clear
7:53 PM 41.0 °F 35.8 °F 10.0 °F 28% 30.24 in 10.0 mi West 8.1 mph - N/A   Clear
8:53 PM 37.9 °F 33.5 °F 10.0 °F 32% 30.22 in 10.0 mi NW 5.8 mph - N/A   Clear
9:53 PM 35.1 °F 31.0 °F 10.9 °F 37% 30.19 in 10.0 mi NNW 4.6 mph - N/A   Clear
10:53 PM 34.0 °F 26.0 °F 10.9 °F 38% 30.17 in 10.0 mi North 10.4 mph - N/A   Clear
11:53 PM 30.0 °F 25.2 °F 9.0 °F 41% 30.15 in 10.0 mi North 4.6 mph - N/A   Clear